Погода в Шайдурове

Россия / Новосибирская область     54°00′46″N   81°47′30″E
темп.,
°C
ветер,
м/с
пор.,
м/с
влажн.,
%
обл.,
%
осадки,
мм/ч
давл.,
гПа
погр.,
м
11 мая, вт
вт1101:00+10ссв51258100 0.0 1016344
04:00+8ссв4116955 0.0 1015271
07:00+7ссв5126997 0.0 1016361
10:00+13ссв712465 0.0 10151336
13:00+16ссв810389 0.0 10142259
16:00+18ссв893183 0.0 10142818
19:00+17ссв693534 0.0 10152076
22:00+12ссв5135991 0.4 1018399
12 мая, ср
ср1201:00+11с61266100 0.5 1018388
04:00+10с4127164 0.1 1018332
07:00+9с5117412 0.2 1019298
10:00+15с68515 0.0 1018684
13:00+18с553694 0.0 10182793
16:00+18ссз4537100 0.0 10172279
19:00+17ссв343951 0.0 10171556
22:00+12зсз115439 0.0 101710
13 мая, чт
чт1301:00+10с115234 0.0 101710
04:00+9з2254100 0.0 101613
07:00+9сз2259100 0.0 101646
10:00+14з3356100 0.0 1015714
13:00+16з324856 0.7 10151647
16:00+16сз335370 0.8 10151312
19:00+14сз466592 1.5 1016622
22:00+11ссз51068100 0.0 1017371
14 мая, пт
пт1401:00+8ссз35764 0.0 101785
04:00+7сз25795 0.0 101792
07:00+8ссз39678 0.0 1019283
10:00+13ссз46535 0.0 10191124
13:00+16ссз674211 0.0 10201731
16:00+16ссз673478 0.0 10211684
19:00+15ссз5634100 0.0 10221470
22:00+10сз354515 0.0 102474
15 мая, сб
сб1501:00+8сз1143100 0.0 102511
04:00+10юз233899 0.0 102462
07:00+9юз384999 0.0 1024196
10:00+16зюз5835100 0.0 1023673
13:00+20зюз5731100 0.0 10221271
16:00+21зсз4637100 0.1 10201658
19:00+22зюз374150 0.2 10191270
22:00+16ююз37565 0.0 1018115